IRIDIUM 142

Last updated on Fri Sep 11 2026 00:03:06 GMT+0000 (Coordinated Universal Time)

1 43256U 18030H 26253.57651744 .00000019 00000+0 -18371-6 0 9995 2 43256 86.3907 254.6298 0002031 87.7704 272.3725 14.34217341442378
UTC large
Height (km)
Speed (km/s)
/
Latitude / Longitude
Inclination (degrees)
Orbital Period (minutes)
Azimuth
Elevation
Range (km)
Doppler Factor

Next 0 passes for location: London (51.5072 / 0.1276)

No passes found over London.
IRIDIUM 142